Renzo Blotta, Emanuel Abdala y Marcos Fernández vencieron en las series disputadas por la Clase 2 del Turismo Nacional en el Autódromo Provincia de La Pampa, donde la batería del piloto puntana fue la más rápida y eso le permitirá largar desde la pole position en la 11ª final de la temporada.

    1ra. Serie TN Clase 2 – Toay    

Pos. Piloto Marca Vtas. Tiempo Dif.
1 89 RENZO BLOTTA TOYOTA ETIOS 6 9:59.778
2 55 MARCELO GUEVARA NISSAN MARCH 6 10:01.565 1.787
3 14 IGNACIO PROCACITTO VW TREND 6 10:01.693 1.915
4 154 FACUNDO ROTONDO FIESTA KINETIC 6 10:02.028 2.250
5 37 GABRIEL SCORDIA FIAT ARGO 6 10:02.394 2.616
6 12 MAXIMILIANO BESTANI FIESTA KINETIC 6 10:02.400 2.622
7 84 LUCAS YEROBI FIESTA KINETIC 6 10:03.016 3.238
8 116 ALEJANDRO TORRISI NISSAN MARCH 6 10:05.674 5.896
9 10 ALEJO BORGIANI VW TREND 6 10:07.487 7.709
10 199 JUAN I. TORRES CHEVROLET CORSA 6 10:07.490 7.712
11 3 GERONIMO NUNEZ TOYOTA ETIOS 6 10:24.672 24.894
12 61 FACUNDO BUSTOS VW TREND 5 8:31.373 1 Vuelta
13 82 JUAN PABLO AQUILES TOYOTA ETIOS 5 8:32.139 1 Vuelta
Auto Nro. 12 (Bestani) Recargado con 3 puestos por maniobra peligrosa al Auto Nro. 3 (Nuñez)

Auto Nro. 199 (Torres) Recargado con 8 puestos por maniobra peligrosa al Aut Nro. 10 (Borgiani)

    2da. Serie TN Clase 2 – Toay    

Pos. Piloto Marca Vtas. Tiempo Dif.
1 2 EMANUEL ABDALA FIESTA KINETIC 6 10:29.161
2 86 FACUNDO DELLA MOTTA TOYOTA ETIOS 6 10:29.964 0.803
3 114 PABLO ORTEGA FIAT ARGO 6 10:30.151 0.990
4 4 LUCAS TEDESCHI TOYOTA ETIOS 6 10:30.449 1.288
5 113 CHRISTIAN BODRATO MIONETT TOYOTA ETIOS 6 10:32.009 2.848
6 28 MATEO NUÑEZ NISSAN MARCH 6 10:33.822 4.661
7 36 SANDRO ABDALA RENAULT CLIO 6 10:34.159 4.998
8 79 MARCO VERONESI TOYOTA ETIOS 6 10:34.568 5.407
9 121 NAZARENO BEGUIRISTAIN TOYOTA ETIOS 6 10:35.443 6.282
10 30 VALDERREY ALEJANDRO TOYOTA ETIOS 6 10:43.904 14.743
11 150 JUAN MARTIN ELUCHANS NISSAN MARCH 4 7:39.767 2 Vueltas
112 MATIAS SIGNORELLI FIAT ARGO 1 1:32.466 5 Vueltas

    3ra. Serie TN Clase 2 – Toay    

Pos. Piloto Marca Vtas. Tiempo Dif.
1 22 MARCOS FERNANDEZ NISSAN MARCH 6 8:40.022
2 80 JUAN I. CANELA VW TREND 6 8:40.904 0.882
3 9 CHRISTIAN ABDALA TOYOTA ETIOS 6 8:41.478 1.456
4 21 FERNANDO GOMEZ FREDES TOYOTA ETIOS 6 8:41.920 1.898
5 35 SERGIO FERNANDEZ NISSAN MARCH 6 8:42.739 2.717
6 98 ALEX CONCI FIESTA KINETIC 6 8:46.615 6.593
7 16 DIEGO LEANEZ TOYOTA ETIOS 6 8:46.768 6.746
8 7 FACUNDO LEANEZ TOYOTA ETIOS 6 8:47.332 7.310
9 78 ROBERTO LUNA VW TREND 6 8:49.727 9.705
10 181 DIEGO SEGOVIA FIESTA KINETIC 6 9:22.259 42.237
11 8 SEBASTIAN PEREZ CHEVROLET ONIX 6 9:55.736 1:15.714
12 15 MIGUEL CIAURRO VW TREND 4 7:10.422 2 Vueltas

S.B